DELTA 1 DEB, 7038

Orbit data source: Space-Track

DELTA 1 DEB, 7038 is space debris in SSO originally from a launch on Tue, 06 Nov 1973 UTC launched from the Air Force Western Test Range (AFWTR). Debris objects in space refer to the collection of defunct objects orbiting the Earth. Examples of debris include non-operational satellites, rocket bodies, and fragments generated from explosions, collisions, or faulty payload assembly.

Loading next visibility...
Identifier
7038, 1973-086AE
Orbit
SSO
Last TLE update
8 hours ago
Origin
Manufacturer
Unknown
Mission
Spacecraft
Bus & Motor
Unknown
Mass
Unknown
Launch date (UTC)
1973-11-06 (52 years ago)
Launch vehicle
Unknown
Launch site
Air Force Western Test Range (AFWTR)
Object type
Payload
Rocket body
Debris
Shape & HBR
Unknown
Radar Cross Section
Medium (>0.1 m² and <1 m²)

Expand to show TLE details & history

TLE from 8 hours ago
0 DELTA 1 DEB
1 07038U 73086AE  25188.50110067  .00000123  00000-0  14624-2 0  9991
2 07038 101.9032  26.2036 0129909  48.3363   8.4705 12.24364584304327
Epoch: 2025-07-07T12:01Z
TLE epoch observation values (Epoch: 2025-07-07T12:01:35.097Z)
Latitude
55.27077°
Longitude
-97.51571°
Altitude
1,480.372 km
Speed
7.174 km/s
True Right ascension
00h 34m 21s
True Declination
55° 07' 28"
Sunlit
Object was in daylight at epoch
Visualization orbit readout
Latitude
70.88546°
Longitude
-116.83473°
Altitude
1,493.42 km
Speed
7.165 km/s
Apparent Right ascension
21h 07m 19s
Apparent Declination
25° 55' 38"
Sunlit
Object is in daylight
Visualization observer readout
Local Sidereal Time
08:01:34
Azimuth
344.024° N
Elevation
-22.398°
Doppler factor
1
Orbital elements
Apogee altitude
1,674.445 km
Perigee altitude
1,467.908 km
Semi-major axis
7,949.314 km
Eccentricity
0.01299
Inclination
101.9032°
RAAN
26.2036°
Arg. of periapsis
48.3363°
True anomaly
Unknown
Mean anomaly
8.4705°
Eccentric anomaly
Unknown
Mean motion
3.06231 °/min
Orbital period
117.56 mins
BSTAR
0.0014624
Loading maneuver chart data...
Loading SW <> Apogee altitude chart data...
Loading historical data...
Loading historical data...
Loading historical data...
Loading historical data...
Loading historical data...
Loading historical data...
Loading historical data...

DELTA 1 DEB Visibility forecast

Observer location: undefined°, undefined°

Span
Click to sort rows by Start time (UTC) header in descending order
Start Az.
Max El. time (UTC)
Max El. Az.
Max El.
End time (UTC)
End Az.
9 mins2025-07-08 00:10:54.057Z58.807° ENE2025-07-08 00:14:54.057Z86.746° E14.457°2025-07-08 00:19:54.057Z121.531° SE
15 mins2025-07-08 02:04:54.057Z21.193° NNE2025-07-08 02:11:54.057Z115.062° SE44.525°2025-07-08 02:19:54.057Z193.931° SSW
12 mins2025-07-08 04:00:54.057Z350.397° N2025-07-08 04:05:54.057Z310.12° NW23.223°2025-07-08 04:12:54.057Z256.552° W
11 mins2025-07-08 11:25:54.057Z101.193° ESE2025-07-08 11:30:54.057Z55.267° ENE25.402°2025-07-08 11:36:54.057Z4.667° NNE
15 mins2025-07-08 13:18:54.057Z175.128° S2025-07-08 13:25:54.057Z266.51° W42.572°2025-07-08 13:33:54.057Z337.435° NNW
|